This is the latest recevied weather packets stored in our database for station/object VE3TEJ. If no packets are shown the sender has not sent any weather packets the latest 10 day(s).
| Time | Temp. | Humidity | Pressure | Rain* | Wind** | Luminosity | Snow |
|---|---|---|---|---|---|---|---|
| 1777740436 | 5.56° C | 50% | 1014.8 hPa | 0 mm | - | - | - |
| 1777740136 | 6.11° C | 51% | 1014.9 hPa | 0 mm | - | - | - |
| 1777739836 | 6.11° C | 53% | 1014.9 hPa | 0 mm | - | - | - |
| 1777739537 | 5.56° C | 52% | 1014.7 hPa | 0 mm | - | - | - |
| 1777739237 | 5.56° C | 50% | 1014.8 hPa | 0 mm | - | - | - |
| 1777738937 | 5.56° C | 54% | 1014.9 hPa | 0 mm | - | - | - |
| 1777738637 | 5° C | 54% | 1014.9 hPa | 0 mm | - | - | - |
| 1777738337 | 5.56° C | 53% | 1014.9 hPa | 0 mm | - | - | - |
| 1777738037 | 6.11° C | 51% | 1014.8 hPa | 0 mm | - | - | - |
| 1777737737 | 6.11° C | 54% | 1014.8 hPa | 0 mm | - | - | - |
| 1777737438 | 6.11° C | 50% | 1014.9 hPa | 0 mm | - | - | - |
| 1777737138 | 6.11° C | 53% | 1014.8 hPa | 0 mm | - | - | - |
| 1777736836 | 5.56° C | 52% | 1014.9 hPa | 0 mm | - | - | - |
| 1777736536 | 5.56° C | 53% | 1015 hPa | 0 mm | - | - | - |
| 1777736237 | 6.11° C | 52% | 1014.7 hPa | 0 mm | - | - | - |
| 1777735937 | 5.56° C | 55% | 1014.9 hPa | 0 mm | - | - | - |
| 1777735637 | 6.11° C | 52% | 1014.9 hPa | 0 mm | - | - | - |
| 1777735337 | 5.56° C | 51% | 1014.8 hPa | 0 mm | - | - | - |
| 1777735037 | 5.56° C | 55% | 1015 hPa | 0 mm | - | - | - |
| 1777734738 | 6.11° C | 55% | 1014.7 hPa | 0 mm | - | - | - |
| 1777734437 | 6.67° C | 51% | 1014.7 hPa | 0 mm | - | - | - |
| 1777734136 | 5.56° C | 57% | 1014.7 hPa | 0 mm | - | - | - |
| 1777733836 | 5° C | 54% | 1015 hPa | 0 mm | - | - | - |
| 1777733536 | 6.11° C | 54% | 1014.9 hPa | 0 mm | - | - | - |
| 1777733237 | 5° C | 56% | 1015 hPa | 0 mm | - | - | - |
* Rain latest hour (hover to see other rain measurements)
** Current wind speed in m/s (hover to see current wind gust speed)